Location: Bow
(51.5261°N, 0.0167°W)
Time: 21:38:13
(UTC+00:00)

ATLAS 2AS CENTAUR R/B - Pass Details

Date: 18 September 2020
Orbit: 939 x 1273 km, 63.7° (Epoch: 27 October)

Event Time Altitude Azimuth Distance (km) Brightness Sun altitude
Rises 21:01:55 0° 202° (SSW) 4,195 5.6 -25.8°
Reaches altitude 10° 21:04:45 10° 198° (SSW) 3,248 5.0 -26.1°
Enters shadow 21:04:49 10° 198° (SSW) 3,227 5.0 -26.1°
Exits shadow 21:11:57 55° 137° (SE) 1,496 3.0 -27.0°
Maximum altitude 21:12:26 56° 123° (ESE) 1,484 3.0 -27.0°
Drops below altitude 10° 21:20:04 10° 48° (NE) 3,226 5.2 -27.9°
Sets 21:22:51 0° 45° (NE) 4,165 5.8 -28.2°
